STARLINK-1179 (45085 NORAD) Tracking and Keplerian Element Data

This shows tracking and keplerian element data for the satellite.

Feedback or suggestion? Click here.




ElementValue
Catalog45085
NameSTARLINK-1179
Epoch Orbit406
Epoch Day52.91667824
Epoch Year2020
RAAN117.4603
Inclination52.9957
Eccentricity0.0001119
Argument of Perigee67.2547
Mean Anonmoly0.3824
Mean Motion15.82744798
Decay Rate-0.00071456
L11 45085U 20006AT 20052.91667824 -.00071456 00000-0 -33112-3 0 9990
L22 45085 52.9957 117.4603 0001119 67.2547 0.3824 15.82744798 4068

Live tracking and technical data element details for STARLINK-1179 (NORAD 45085). STARLINK-1179 can be tracked NOW for your location showing map with azimuth and elevation plus other details from your city location.

Track the satellite on the map from your city or location and see movement details for azimuth, elevation, latitude, longitude, range, height, and movement on the map or in text.







IsCatalogInMostPopularTable: catalog: 45085, numindb: 7
Update: records affected: 1



GetName: 45085 STARLINK-1179

Hit Count: updated at: Wed, 26 Feb 2020 17:17:51 GMT